Time,TemperatureF,DewpointF,PressureIn,WindDirection,WindDirectionDegrees,WindSpeedMPH,WindSpeedGustMPH,Humidity,HourlyPrecipIn,Conditions,Clouds,dailyrainin,SoftwareType,DateUTC
2013-06-05 00:04:00,51.3,49.6,30.12,East,83,0.0,0.0,94,0.00,,,0.00,Wunderground v.1.15,2013-06-05 05:04:00,
2013-06-05 00:09:00,51.2,49.5,30.12,ESE,118,0.0,0.0,94,0.00,,,0.00,Wunderground v.1.15,2013-06-05 05:09:00,
2013-06-05 00:15:00,51.1,49.4,30.12,East,100,0.0,0.0,94,0.00,,,0.00,Wunderground v.1.15,2013-06-05 05:15:00,
2013-06-05 00:20:00,51.0,49.3,30.12,East,87,0.0,0.0,94,0.00,,,0.00,Wunderground v.1.15,2013-06-05 05:20:00,
2013-06-05 00:26:00,51.0,49.3,30.12,ENE,78,0.0,0.0,94,0.00,,,0.00,Wunderground v.1.15,2013-06-05 05:26:00,
2013-06-05 00:32:00,50.8,49.1,30.12,SE,142,0.0,0.0,94,0.00,,,0.00,Wunderground v.1.15,2013-06-05 05:32:00,
2013-06-05 00:38:00,50.7,48.7,30.12,ESE,110,0.0,0.0,93,0.00,,,0.00,Wunderground v.1.15,2013-06-05 05:38:00,
2013-06-05 00:43:00,50.6,48.7,30.12,ENE,76,0.0,0.0,93,0.18,,,0.02,Wunderground v.1.15,2013-06-05 05:43:00,
2013-06-05 00:49:00,50.5,48.6,30.12,ESE,107,0.0,0.0,93,0.08,,,0.02,Wunderground v.1.15,2013-06-05 05:49:00,
2013-06-05 00:55:00,50.5,48.8,30.12,East,94,0.0,0.0,94,0.04,,,0.02,Wunderground v.1.15,2013-06-05 05:55:00,
2013-06-05 01:01:00,50.5,48.8,30.12,ENE,78,0.0,0.0,94,0.00,,,0.02,Wunderground v.1.15,2013-06-05 06:01:00,
2013-06-05 01:07:00,50.4,48.7,30.12,ESE,108,0.0,0.0,94,0.00,,,0.02,Wunderground v.1.15,2013-06-05 06:07:00,
2013-06-05 01:12:00,50.4,48.7,30.12,East,84,0.0,0.0,94,0.00,,,0.02,Wunderground v.1.15,2013-06-05 06:12:00,
2013-06-05 01:18:00,50.4,48.7,30.12,East,94,0.0,0.0,94,0.00,,,0.02,Wunderground v.1.15,2013-06-05 06:18:00,
2013-06-05 01:23:00,50.3,48.6,30.12,East,96,0.0,0.0,94,0.00,,,0.02,Wunderground v.1.15,2013-06-05 06:23:00,
2013-06-05 01:29:00,50.3,48.6,30.12,ESE,119,0.0,0.0,94,0.00,,,0.02,Wunderground v.1.15,2013-06-05 06:29:00,
2013-06-05 01:35:00,50.2,48.5,30.12,East,94,0.0,0.0,94,0.00,,,0.02,Wunderground v.1.15,2013-06-05 06:35:00,
2013-06-05 01:41:00,50.1,48.4,30.12,ESE,102,0.0,0.0,94,0.00,,,0.02,Wunderground v.1.15,2013-06-05 06:41:00,
2013-06-05 01:47:00,50.0,48.3,30.11,East,94,0.0,0.0,94,0.00,,,0.02,Wunderground v.1.15,2013-06-05 06:47:00,
2013-06-05 01:52:00,49.9,48.2,30.12,East,98,0.0,0.0,94,0.00,,,0.02,Wunderground v.1.15,2013-06-05 06:52:00,
2013-06-05 01:58:00,49.8,48.1,30.12,ENE,74,0.0,0.0,94,0.00,,,0.02,Wunderground v.1.15,2013-06-05 06:58:00,
2013-06-05 02:04:00,49.7,48.0,30.11,ESE,109,0.0,0.0,94,0.00,,,0.02,Wunderground v.1.15,2013-06-05 07:04:00,
2013-06-05 02:10:00,49.6,47.9,30.11,ESE,111,0.0,0.0,94,0.00,,,0.02,Wunderground v.1.15,2013-06-05 07:10:00,
2013-06-05 02:15:00,49.6,47.9,30.11,ESE,107,0.0,0.0,94,0.00,,,0.02,Wunderground v.1.15,2013-06-05 07:15:00,
2013-06-05 02:20:00,49.6,47.9,30.11,SE,134,0.0,0.0,94,0.00,,,0.02,Wunderground v.1.15,2013-06-05 07:20:00,
2013-06-05 02:26:00,49.6,47.9,30.11,ESE,113,0.0,0.0,94,0.00,,,0.02,Wunderground v.1.15,2013-06-05 07:26:00,
2013-06-05 02:32:00,49.6,47.9,30.11,ENE,78,0.0,0.0,94,0.00,,,0.02,Wunderground v.1.15,2013-06-05 07:32:00,
2013-06-05 02:38:00,49.6,47.9,30.11,East,81,0.0,0.0,94,0.00,,,0.03,Wunderground v.1.15,2013-06-05 07:38:00,
2013-06-05 02:43:00,49.6,47.9,30.11,ENE,78,0.0,0.0,94,0.00,,,0.03,Wunderground v.1.15,2013-06-05 07:43:00,
2013-06-05 02:48:00,49.6,47.9,30.11,East,92,0.0,0.0,94,0.00,,,0.03,Wunderground v.1.15,2013-06-05 07:48:00,
2013-06-05 02:54:00,49.6,47.9,30.11,East,82,0.0,0.0,94,0.05,,,0.04,Wunderground v.1.15,2013-06-05 07:54:00,
2013-06-05 02:59:00,49.5,47.8,30.11,ENE,73,0.0,0.0,94,0.11,,,0.05,Wunderground v.1.15,2013-06-05 07:59:00,
2013-06-05 03:05:00,49.5,48.1,30.11,East,98,0.0,0.0,95,0.06,,,0.05,Wunderground v.1.15,2013-06-05 08:05:00,
2013-06-05 03:11:00,49.5,48.1,30.11,East,98,0.0,0.0,95,0.04,,,0.06,Wunderground v.1.15,2013-06-05 08:11:00,
2013-06-05 03:17:00,49.5,48.1,30.11,East,93,0.0,0.0,95,0.04,,,0.06,Wunderground v.1.15,2013-06-05 08:17:00,
2013-06-05 03:22:00,49.5,48.1,30.10,East,100,0.0,0.0,95,0.04,,,0.06,Wunderground v.1.15,2013-06-05 08:22:00,
2013-06-05 03:28:00,49.5,48.1,30.10,East,89,0.0,0.0,95,0.00,,,0.06,Wunderground v.1.15,2013-06-05 08:28:00,
2013-06-05 03:34:00,49.5,48.1,30.09,East,87,0.0,0.0,95,0.00,,,0.06,Wunderground v.1.15,2013-06-05 08:34:00,
2013-06-05 03:40:00,49.5,48.1,30.09,East,80,0.0,0.0,95,0.00,,,0.07,Wunderground v.1.15,2013-06-05 08:40:00,
2013-06-05 03:45:00,49.5,48.1,30.09,ESE,103,0.0,0.0,95,0.00,,,0.07,Wunderground v.1.15,2013-06-05 08:45:00,
2013-06-05 03:51:00,49.5,48.1,30.09,East,101,0.0,0.0,95,0.00,,,0.07,Wunderground v.1.15,2013-06-05 08:51:00,
2013-06-05 03:57:00,49.5,48.1,30.09,ENE,77,0.0,0.0,95,0.00,,,0.07,Wunderground v.1.15,2013-06-05 08:57:00,
2013-06-05 04:03:00,49.6,48.2,30.09,ESE,110,0.0,0.0,95,0.00,,,0.07,Wunderground v.1.15,2013-06-05 09:03:00,
2013-06-05 04:08:00,49.6,48.2,30.09,ESE,118,0.0,0.0,95,0.00,,,0.08,Wunderground v.1.15,2013-06-05 09:08:00,
2013-06-05 04:14:00,49.6,48.2,30.09,SE,127,0.0,0.0,95,0.00,,,0.08,Wunderground v.1.15,2013-06-05 09:14:00,
2013-06-05 04:19:00,49.6,48.2,30.08,East,88,0.0,0.0,95,0.00,,,0.08,Wunderground v.1.15,2013-06-05 09:19:00,
2013-06-05 04:25:00,49.6,48.2,30.08,ENE,63,0.0,0.0,95,0.00,,,0.08,Wunderground v.1.15,2013-06-05 09:25:00,
2013-06-05 04:31:00,49.6,48.2,30.08,ENE,72,0.0,0.0,95,0.00,,,0.08,Wunderground v.1.15,2013-06-05 09:31:00,
2013-06-05 04:36:00,49.6,48.2,30.08,East,86,0.0,0.0,95,0.00,,,0.08,Wunderground v.1.15,2013-06-05 09:36:00,
2013-06-05 04:42:00,49.6,48.2,30.08,ESE,104,0.0,0.0,95,0.00,,,0.08,Wunderground v.1.15,2013-06-05 09:42:00,
2013-06-05 04:48:00,49.7,48.3,30.08,ESE,111,0.0,0.0,95,0.00,,,0.08,Wunderground v.1.15,2013-06-05 09:48:00,
2013-06-05 04:53:00,49.7,48.3,30.08,ESE,107,0.0,0.0,95,0.00,,,0.08,Wunderground v.1.15,2013-06-05 09:53:00,
2013-06-05 04:59:00,49.7,48.3,30.08,ESE,105,0.0,0.0,95,0.00,,,0.08,Wunderground v.1.15,2013-06-05 09:59:00,
2013-06-05 05:05:00,49.7,48.3,30.08,ESE,102,0.0,0.0,95,0.00,,,0.08,Wunderground v.1.15,2013-06-05 10:05:00,
2013-06-05 05:11:00,49.7,48.3,30.08,East,85,0.0,0.0,95,0.00,,,0.08,Wunderground v.1.15,2013-06-05 10:11:00,
2013-06-05 05:16:00,49.8,48.4,30.08,SE,128,0.0,0.0,95,0.00,,,0.08,Wunderground v.1.15,2013-06-05 10:16:00,
2013-06-05 05:22:00,49.8,48.4,30.08,ESE,112,0.0,0.0,95,0.00,,,0.08,Wunderground v.1.15,2013-06-05 10:22:00,
2013-06-05 05:27:00,49.9,48.5,30.08,East,94,0.0,0.0,95,0.00,,,0.08,Wunderground v.1.15,2013-06-05 10:27:00,
2013-06-05 05:33:00,49.9,48.5,30.08,ESE,104,0.0,0.0,95,0.00,,,0.08,Wunderground v.1.15,2013-06-05 10:33:00,
2013-06-05 05:39:00,49.9,48.5,30.08,East,80,0.0,0.0,95,0.00,,,0.08,Wunderground v.1.15,2013-06-05 10:39:00,
2013-06-05 05:44:00,49.9,48.5,30.08,East,79,0.0,0.0,95,0.00,,,0.08,Wunderground v.1.15,2013-06-05 10:44:00,
2013-06-05 05:50:00,49.9,48.5,30.08,ENE,71,0.0,0.0,95,0.00,,,0.08,Wunderground v.1.15,2013-06-05 10:50:00,
2013-06-05 05:56:00,49.9,48.5,30.09,ESE,105,0.0,0.0,95,0.00,,,0.08,Wunderground v.1.15,2013-06-05 10:56:00,
2013-06-05 06:01:00,49.9,48.5,30.09,ENE,64,0.0,0.0,95,0.00,,,0.08,Wunderground v.1.15,2013-06-05 11:01:00,
2013-06-05 06:06:00,49.9,48.5,30.09,East,88,0.0,0.0,95,0.00,,,0.08,Wunderground v.1.15,2013-06-05 11:06:00,
2013-06-05 06:12:00,49.9,48.5,30.09,East,94,0.0,0.0,95,0.00,,,0.08,Wunderground v.1.15,2013-06-05 11:12:00,
2013-06-05 06:18:00,50.0,48.6,30.10,ENE,76,0.0,0.0,95,0.00,,,0.08,Wunderground v.1.15,2013-06-05 11:18:00,
2013-06-05 06:23:00,50.0,48.6,30.11,ENE,74,0.0,0.0,95,0.00,,,0.09,Wunderground v.1.15,2013-06-05 11:23:00,
2013-06-05 06:29:00,50.0,48.6,30.12,ENE,63,0.0,0.0,95,0.21,,,0.11,Wunderground v.1.15,2013-06-05 11:29:00,
2013-06-05 06:35:00,50.0,48.6,30.11,ESE,105,0.0,0.0,95,0.35,,,0.14,Wunderground v.1.15,2013-06-05 11:35:00,
2013-06-05 06:40:00,50.0,48.6,30.11,ESE,105,0.0,0.0,95,0.28,,,0.16,Wunderground v.1.15,2013-06-05 11:40:00,
2013-06-05 06:45:00,49.9,48.5,30.09,SE,137,0.0,0.0,95,0.27,,,0.18,Wunderground v.1.15,2013-06-05 11:45:00,
2013-06-05 06:51:00,49.8,48.4,30.09,ESE,123,0.0,0.0,95,0.34,,,0.20,Wunderground v.1.15,2013-06-05 11:51:00,
2013-06-05 06:57:00,49.7,48.3,30.08,ESE,118,0.0,0.0,95,0.55,,,0.24,Wunderground v.1.15,2013-06-05 11:57:00,
2013-06-05 07:02:00,49.7,48.3,30.08,ESE,118,0.0,0.0,95,0.22,,,0.27,Wunderground v.1.15,2013-06-05 12:02:00,
2013-06-05 07:08:00,49.7,48.3,30.07,East,85,0.0,0.0,95,0.18,,,0.28,Wunderground v.1.15,2013-06-05 12:08:00,
2013-06-05 07:14:00,49.7,48.3,30.07,ESE,113,0.0,0.0,95,0.20,,,0.30,Wunderground v.1.15,2013-06-05 12:14:00,
2013-06-05 07:20:00,49.8,48.4,30.07,ESE,123,0.0,0.0,95,0.12,,,0.31,Wunderground v.1.15,2013-06-05 12:20:00,
2013-06-05 07:26:00,49.9,48.5,30.07,ESE,120,0.0,0.0,95,0.13,,,0.33,Wunderground v.1.15,2013-06-05 12:26:00,
2013-06-05 07:31:00,49.9,48.5,30.07,ESE,103,0.0,0.0,95,0.17,,,0.34,Wunderground v.1.15,2013-06-05 12:31:00,
2013-06-05 07:37:00,50.0,48.6,30.06,East,101,0.0,0.0,95,0.17,,,0.35,Wunderground v.1.15,2013-06-05 12:37:00,
2013-06-05 07:42:00,50.0,48.6,30.07,ESE,118,0.0,0.0,95,0.13,,,0.37,Wunderground v.1.15,2013-06-05 12:42:00,
2013-06-05 07:48:00,50.1,48.7,30.07,ESE,112,0.0,0.0,95,0.14,,,0.38,Wunderground v.1.15,2013-06-05 12:48:00,
2013-06-05 07:54:00,50.0,48.6,30.06,ENE,70,0.0,0.0,95,0.18,,,0.40,Wunderground v.1.15,2013-06-05 12:54:00,
2013-06-05 07:59:00,50.0,48.6,30.06,ESE,106,0.0,0.0,95,0.09,,,0.40,Wunderground v.1.15,2013-06-05 12:59:00,
2013-06-05 08:05:00,50.1,48.7,30.05,ESE,119,0.0,0.0,95,0.06,,,0.41,Wunderground v.1.15,2013-06-05 13:05:00,
2013-06-05 08:10:00,50.1,48.7,30.05,East,92,0.0,0.0,95,0.12,,,0.42,Wunderground v.1.15,2013-06-05 13:10:00,
2013-06-05 08:16:00,50.2,48.8,30.05,ESE,118,0.0,0.0,95,0.15,,,0.44,Wunderground v.1.15,2013-06-05 13:16:00,
2013-06-05 08:22:00,50.3,48.9,30.05,SE,140,0.0,0.0,95,0.08,,,0.44,Wunderground v.1.15,2013-06-05 13:22:00,
2013-06-05 08:28:00,50.3,48.9,30.05,ENE,72,0.0,0.0,95,0.07,,,0.45,Wunderground v.1.15,2013-06-05 13:28:00,
2013-06-05 08:34:00,50.4,48.7,30.04,ESE,115,0.0,0.0,94,0.06,,,0.45,Wunderground v.1.15,2013-06-05 13:34:00,
2013-06-05 08:39:00,50.5,48.8,30.05,ESE,117,0.0,0.0,94,0.04,,,0.45,Wunderground v.1.15,2013-06-05 13:39:00,
2013-06-05 08:45:00,50.6,49.2,30.05,SE,132,0.0,0.0,95,0.00,,,0.45,Wunderground v.1.15,2013-06-05 13:45:00,
2013-06-05 08:51:00,50.7,49.3,30.05,SE,127,0.0,0.0,95,0.00,,,0.45,Wunderground v.1.15,2013-06-05 13:51:00,
2013-06-05 08:57:00,50.8,49.1,30.06,SE,126,0.0,0.0,94,0.00,,,0.45,Wunderground v.1.15,2013-06-05 13:57:00,
2013-06-05 09:03:00,51.0,49.3,30.06,ESE,115,0.0,0.0,94,0.00,,,0.45,Wunderground v.1.15,2013-06-05 14:03:00,
2013-06-05 09:09:00,51.2,49.5,30.06,ESE,119,0.0,0.0,94,0.00,,,0.45,Wunderground v.1.15,2013-06-05 14:09:00,
2013-06-05 09:14:00,51.4,49.7,30.06,ESE,116,0.0,0.0,94,0.00,,,0.45,Wunderground v.1.15,2013-06-05 14:14:00,
2013-06-05 09:19:00,51.7,50.0,30.06,ENE,73,0.0,0.0,94,0.00,,,0.45,Wunderground v.1.15,2013-06-05 14:19:00,
2013-06-05 09:25:00,52.2,50.5,30.06,ESE,103,0.0,0.0,94,0.00,,,0.45,Wunderground v.1.15,2013-06-05 14:25:00,
2013-06-05 09:31:00,52.9,51.2,30.07,ESE,104,0.0,0.0,94,0.00,,,0.45,Wunderground v.1.15,2013-06-05 14:31:00,
2013-06-05 09:37:00,53.2,51.2,30.07,SE,127,0.0,0.0,93,0.00,,,0.45,Wunderground v.1.15,2013-06-05 14:37:00,
2013-06-05 09:43:00,53.1,50.8,30.07,East,96,0.0,0.0,92,0.00,,,0.45,Wunderground v.1.15,2013-06-05 14:43:00,
2013-06-05 09:49:00,53.2,50.6,30.06,SE,134,0.0,0.0,91,0.00,,,0.45,Wunderground v.1.15,2013-06-05 14:49:00,
2013-06-05 09:54:00,53.2,50.6,30.06,ESE,103,0.0,0.0,91,0.00,,,0.45,Wunderground v.1.15,2013-06-05 14:54:00,
2013-06-05 10:00:00,53.3,50.4,30.06,ESE,116,0.0,0.0,90,0.00,,,0.45,Wunderground v.1.15,2013-06-05 15:00:00,
2013-06-05 10:06:00,53.2,50.3,30.06,East,98,0.0,0.0,90,0.00,,,0.45,Wunderground v.1.15,2013-06-05 15:06:00,
2013-06-05 10:12:00,53.3,50.4,30.05,SE,125,0.0,0.0,90,0.00,,,0.45,Wunderground v.1.15,2013-06-05 15:12:00,
2013-06-05 10:18:00,53.6,50.7,30.05,ESE,121,0.0,0.0,90,0.00,,,0.45,Wunderground v.1.15,2013-06-05 15:18:00,
2013-06-05 10:23:00,54.5,51.3,30.05,ESE,113,0.0,0.0,89,0.00,,,0.45,Wunderground v.1.15,2013-06-05 15:23:00,
2013-06-05 10:29:00,54.5,51.0,30.05,SE,143,0.0,0.0,88,0.00,,,0.45,Wunderground v.1.15,2013-06-05 15:29:00,
2013-06-05 10:34:00,54.3,50.5,30.05,East,80,0.0,0.0,87,0.00,,,0.46,Wunderground v.1.15,2013-06-05 15:34:00,
2013-06-05 10:41:00,54.5,51.0,30.06,ESE,112,0.0,0.0,88,0.00,,,0.46,Wunderground v.1.15,2013-06-05 15:41:00,
2013-06-05 10:47:00,54.5,50.4,30.05,ESE,103,0.0,0.0,86,0.00,,,0.46,Wunderground v.1.15,2013-06-05 15:47:00,
2013-06-05 10:53:00,54.6,50.5,30.05,East,85,0.0,0.0,86,0.00,,,0.46,Wunderground v.1.15,2013-06-05 15:53:00,
2013-06-05 10:58:00,54.8,50.4,30.05,ESE,104,0.0,0.0,85,0.00,,,0.46,Wunderground v.1.15,2013-06-05 15:58:00,
2013-06-05 11:04:00,55.1,51.0,30.05,East,93,0.0,0.0,86,0.00,,,0.46,Wunderground v.1.15,2013-06-05 16:04:00,
2013-06-05 11:10:00,55.3,51.2,30.05,East,98,0.0,0.0,86,0.00,,,0.46,Wunderground v.1.15,2013-06-05 16:10:00,
2013-06-05 11:16:00,55.4,51.0,30.05,ESE,117,0.0,0.0,85,0.00,,,0.46,Wunderground v.1.15,2013-06-05 16:16:00,
2013-06-05 11:22:00,55.3,50.9,30.05,East,96,0.0,0.0,85,0.00,,,0.46,Wunderground v.1.15,2013-06-05 16:22:00,
2013-06-05 11:28:00,55.2,51.1,30.04,ESE,117,0.0,0.0,86,0.00,,,0.46,Wunderground v.1.15,2013-06-05 16:28:00,
2013-06-05 11:33:00,54.9,50.5,30.04,East,93,0.0,0.0,85,0.00,,,0.46,Wunderground v.1.15,2013-06-05 16:33:00,
2013-06-05 11:39:00,54.6,50.5,30.04,SE,145,0.0,0.0,86,0.00,,,0.46,Wunderground v.1.15,2013-06-05 16:39:00,
2013-06-05 11:44:00,54.5,50.7,30.05,East,92,0.0,0.0,87,0.00,,,0.46,Wunderground v.1.15,2013-06-05 16:44:00,
2013-06-05 11:50:00,54.4,50.6,30.04,ESE,102,0.0,0.0,87,0.00,,,0.46,Wunderground v.1.15,2013-06-05 16:50:00,
2013-06-05 11:56:00,54.2,50.7,30.04,East,81,0.0,0.0,88,0.00,,,0.46,Wunderground v.1.15,2013-06-05 16:56:00,
2013-06-05 12:01:00,54.2,50.7,30.04,East,84,0.0,0.0,88,0.00,,,0.46,Wunderground v.1.15,2013-06-05 17:01:00,
2013-06-05 12:06:00,54.1,50.9,30.04,ESE,117,0.0,0.0,89,0.00,,,0.46,Wunderground v.1.15,2013-06-05 17:06:00,
2013-06-05 12:12:00,53.9,50.7,30.04,ESE,119,0.0,0.0,89,0.00,,,0.46,Wunderground v.1.15,2013-06-05 17:12:00,
2013-06-05 12:18:00,53.7,50.8,30.04,ESE,122,0.0,0.0,90,0.00,,,0.46,Wunderground v.1.15,2013-06-05 17:18:00,
2013-06-05 12:24:00,53.4,50.5,30.04,SE,128,0.0,0.0,90,0.00,,,0.46,Wunderground v.1.15,2013-06-05 17:24:00,
2013-06-05 12:30:00,53.2,50.6,30.04,East,101,0.0,0.0,91,0.00,,,0.46,Wunderground v.1.15,2013-06-05 17:30:00,
2013-06-05 12:35:00,53.0,50.4,30.04,ESE,115,0.0,0.0,91,0.00,,,0.47,Wunderground v.1.15,2013-06-05 17:35:00,
2013-06-05 12:41:00,52.9,50.6,30.04,ESE,119,0.0,0.0,92,0.00,,,0.47,Wunderground v.1.15,2013-06-05 17:41:00,
2013-06-05 12:47:00,52.8,50.5,30.04,ESE,111,0.0,0.0,92,0.07,,,0.48,Wunderground v.1.15,2013-06-05 17:47:00,
2013-06-05 12:52:00,52.6,50.3,30.03,ESE,104,0.0,0.0,92,0.06,,,0.49,Wunderground v.1.15,2013-06-05 17:52:00,
2013-06-05 12:58:00,52.5,50.5,30.03,ESE,119,0.0,0.0,93,0.15,,,0.50,Wunderground v.1.15,2013-06-05 17:58:00,
2013-06-05 13:03:00,52.5,50.5,30.03,East,98,0.0,0.0,93,0.29,,,0.53,Wunderground v.1.15,2013-06-05 18:03:00,
2013-06-05 13:09:00,52.4,50.4,30.03,East,96,0.0,0.0,93,0.19,,,0.55,Wunderground v.1.15,2013-06-05 18:09:00,
2013-06-05 13:14:00,52.4,50.4,30.03,East,91,0.0,0.0,93,0.38,,,0.58,Wunderground v.1.15,2013-06-05 18:14:00,
2013-06-05 13:20:00,52.4,50.4,30.03,ESE,111,0.0,0.0,93,0.24,,,0.60,Wunderground v.1.15,2013-06-05 18:20:00,
2013-06-05 13:32:00,52.2,50.5,30.03,East,80,0.0,0.0,94,0.25,,,0.68,Wunderground v.1.15,2013-06-05 18:32:00,
2013-06-05 13:42:00,52.2,50.5,30.04,East,87,0.0,0.0,94,0.46,,,0.74,Wunderground v.1.15,2013-06-05 18:42:00,
2013-06-05 13:52:00,52.1,50.4,30.03,East,82,0.0,0.0,94,0.44,,,0.80,Wunderground v.1.15,2013-06-05 18:52:00,
2013-06-05 13:59:00,52.1,50.4,30.04,East,87,0.0,0.0,94,0.24,,,0.84,Wunderground v.1.15,2013-06-05 18:59:00,
2013-06-05 14:03:00,52.1,50.4,30.04,East,92,0.0,0.0,94,0.35,,,0.86,Wunderground v.1.15,2013-06-05 19:03:00,
2013-06-05 14:11:00,52.1,50.4,30.03,East,88,0.0,0.0,94,0.32,,,0.88,Wunderground v.1.15,2013-06-05 19:11:00,
2013-06-05 14:20:00,52.2,50.5,30.01,ENE,78,0.0,0.0,94,0.14,,,0.91,Wunderground v.1.15,2013-06-05 19:20:00,
2013-06-05 14:31:00,53.2,51.8,30.00,ESE,120,0.0,0.0,95,0.19,,,0.95,Wunderground v.1.15,2013-06-05 19:31:00,
2013-06-05 14:40:00,53.5,51.8,30.00,ESE,102,0.0,0.0,94,0.07,,,0.96,Wunderground v.1.15,2013-06-05 19:40:00,
2013-06-05 14:50:00,53.4,51.7,30.01,ESE,111,0.0,0.0,94,0.00,,,0.96,Wunderground v.1.15,2013-06-05 19:50:00,
2013-06-05 14:56:00,53.1,51.4,30.01,SE,132,0.0,0.0,94,0.00,,,0.96,Wunderground v.1.15,2013-06-05 19:56:00,
2013-06-05 15:01:00,53.0,51.3,30.01,ESE,110,0.0,0.0,94,0.00,,,0.96,Wunderground v.1.15,2013-06-05 20:01:00,
2013-06-05 15:06:00,53.0,51.3,30.02,East,98,0.0,0.0,94,0.00,,,0.96,Wunderground v.1.15,2013-06-05 20:06:00,
2013-06-05 15:12:00,53.0,51.3,30.01,ESE,113,0.0,0.0,94,0.00,,,0.96,Wunderground v.1.15,2013-06-05 20:12:00,
2013-06-05 15:18:00,53.0,51.3,30.01,ESE,111,0.0,0.0,94,0.00,,,0.97,Wunderground v.1.15,2013-06-05 20:18:00,
2013-06-05 15:24:00,52.9,51.2,30.01,ESE,109,0.0,0.0,94,0.11,,,0.98,Wunderground v.1.15,2013-06-05 20:24:00,
2013-06-05 15:29:00,52.8,51.1,30.01,ESE,113,0.0,0.0,94,0.15,,,1.00,Wunderground v.1.15,2013-06-05 20:29:00,
2013-06-05 15:35:00,52.8,51.1,30.01,SE,132,0.0,0.0,94,0.10,,,1.01,Wunderground v.1.15,2013-06-05 20:35:00,
2013-06-05 15:40:00,52.8,51.1,30.01,SE,125,0.0,0.0,94,0.20,,,1.02,Wunderground v.1.15,2013-06-05 20:40:00,
2013-06-05 15:45:00,52.8,51.1,30.01,SE,126,0.0,0.0,94,0.31,,,1.04,Wunderground v.1.15,2013-06-05 20:45:00,
2013-06-05 15:51:00,52.8,51.4,29.99,ESE,107,0.0,0.0,95,0.29,,,1.06,Wunderground v.1.15,2013-06-05 20:51:00,
2013-06-05 15:56:00,52.8,51.4,29.97,SE,125,0.0,0.0,95,0.25,,,1.08,Wunderground v.1.15,2013-06-05 20:56:00,
2013-06-05 16:02:00,52.8,51.4,29.95,ESE,107,0.0,0.0,95,0.13,,,1.09,Wunderground v.1.15,2013-06-05 21:02:00,
2013-06-05 16:08:00,52.9,51.5,29.93,ESE,120,0.0,0.0,95,0.15,,,1.11,Wunderground v.1.15,2013-06-05 21:08:00,
2013-06-05 16:14:00,53.2,51.8,29.93,ESE,110,0.0,0.0,95,0.16,,,1.13,Wunderground v.1.15,2013-06-05 21:14:00,
2013-06-05 16:20:00,53.6,52.2,29.95,ESE,121,0.0,0.0,95,0.09,,,1.13,Wunderground v.1.15,2013-06-05 21:20:00,
2013-06-05 16:26:00,54.0,52.6,29.95,SE,127,0.0,0.0,95,0.05,,,1.13,Wunderground v.1.15,2013-06-05 21:26:00,
2013-06-05 16:32:00,54.6,53.2,29.97,East,87,0.0,0.0,95,0.00,,,1.13,Wunderground v.1.15,2013-06-05 21:32:00,
2013-06-05 16:37:00,54.6,52.9,29.97,SE,130,0.0,0.0,94,0.00,,,1.13,Wunderground v.1.15,2013-06-05 21:37:00,
2013-06-05 16:43:00,54.9,53.2,29.97,ESE,107,0.0,0.0,94,0.00,,,1.13,Wunderground v.1.15,2013-06-05 21:43:00,
2013-06-05 16:48:00,55.0,53.0,29.97,NNE,29,0.0,0.0,93,0.00,,,1.13,Wunderground v.1.15,2013-06-05 21:48:00,
2013-06-05 16:54:00,55.3,53.3,29.97,SE,136,0.0,0.0,93,0.00,,,1.13,Wunderground v.1.15,2013-06-05 21:54:00,
2013-06-05 17:00:00,55.3,53.3,29.97,East,99,0.0,0.0,93,0.00,,,1.13,Wunderground v.1.15,2013-06-05 22:00:00,
2013-06-05 17:05:00,55.3,53.3,29.96,ESE,111,0.0,0.0,93,0.00,,,1.13,Wunderground v.1.15,2013-06-05 22:05:00,
2013-06-05 17:11:00,55.3,53.0,29.96,ESE,102,0.0,0.0,92,0.00,,,1.13,Wunderground v.1.15,2013-06-05 22:11:00,
2013-06-05 17:17:00,55.3,53.0,29.96,East,98,0.0,0.0,92,0.00,,,1.13,Wunderground v.1.15,2013-06-05 22:17:00,
2013-06-05 17:23:00,55.3,53.0,29.96,East,100,0.0,0.0,92,0.00,,,1.13,Wunderground v.1.15,2013-06-05 22:23:00,
2013-06-05 17:29:00,55.2,53.2,29.96,ESE,106,0.0,0.0,93,0.00,,,1.13,Wunderground v.1.15,2013-06-05 22:29:00,
2013-06-05 17:34:00,55.1,52.8,29.96,ESE,123,0.0,0.0,92,0.00,,,1.13,Wunderground v.1.15,2013-06-05 22:34:00,
2013-06-05 17:40:00,55.0,52.7,29.96,SE,124,0.0,0.0,92,0.00,,,1.13,Wunderground v.1.15,2013-06-05 22:40:00,
2013-06-05 17:46:00,54.9,52.6,29.95,ESE,103,0.0,0.0,92,0.00,,,1.13,Wunderground v.1.15,2013-06-05 22:46:00,
2013-06-05 17:51:00,54.8,52.5,29.95,East,98,0.0,0.0,92,0.00,,,1.13,Wunderground v.1.15,2013-06-05 22:51:00,
2013-06-05 17:57:00,54.7,52.4,29.95,ESE,110,0.0,0.0,92,0.00,,,1.13,Wunderground v.1.15,2013-06-05 22:57:00,
2013-06-05 18:03:00,54.6,52.3,29.95,East,96,0.0,0.0,92,0.00,,,1.13,Wunderground v.1.15,2013-06-05 23:03:00,
2013-06-05 18:09:00,54.5,51.9,29.95,SE,124,0.0,0.0,91,0.00,,,1.14,Wunderground v.1.15,2013-06-05 23:09:00,
2013-06-05 18:14:00,54.4,51.8,29.95,SE,137,0.0,0.0,91,0.00,,,1.14,Wunderground v.1.15,2013-06-05 23:14:00,
2013-06-05 18:20:00,54.3,51.4,29.94,East,97,0.0,0.0,90,0.00,,,1.14,Wunderground v.1.15,2013-06-05 23:20:00,
2013-06-05 18:26:00,54.1,51.2,29.94,ESE,116,0.0,0.0,90,0.00,,,1.14,Wunderground v.1.15,2013-06-05 23:26:00,
2013-06-05 18:32:00,54.0,51.4,29.95,SE,125,0.0,0.0,91,0.00,,,1.14,Wunderground v.1.15,2013-06-05 23:32:00,
2013-06-05 18:37:00,53.9,51.0,29.95,SE,138,0.0,0.0,90,0.00,,,1.14,Wunderground v.1.15,2013-06-05 23:37:00,
2013-06-05 18:43:00,53.7,50.8,29.95,SE,132,0.0,0.0,90,0.00,,,1.14,Wunderground v.1.15,2013-06-05 23:43:00,
2013-06-05 18:48:00,53.7,51.1,29.94,ESE,118,0.0,0.0,91,0.00,,,1.14,Wunderground v.1.15,2013-06-05 23:48:00,
2013-06-05 18:54:00,53.6,50.7,29.94,ESE,102,0.0,0.0,90,0.00,,,1.14,Wunderground v.1.15,2013-06-05 23:54:00,
2013-06-05 19:00:00,53.4,50.8,29.95,East,101,0.0,0.0,91,0.27,,,1.16,Wunderground v.1.15,2013-06-06 00:00:00,
2013-06-05 19:05:00,53.1,50.5,29.95,East,86,0.0,0.0,91,0.10,,,1.16,Wunderground v.1.15,2013-06-06 00:05:00,
2013-06-05 19:11:00,52.8,50.5,29.95,ESE,123,0.0,0.0,92,0.09,,,1.17,Wunderground v.1.15,2013-06-06 00:11:00,
2013-06-05 19:16:00,52.7,50.4,29.95,ESE,107,0.0,0.0,92,0.06,,,1.18,Wunderground v.1.15,2013-06-06 00:16:00,
2013-06-05 19:22:00,52.5,50.2,29.95,ESE,115,0.0,0.0,92,0.06,,,1.18,Wunderground v.1.15,2013-06-06 00:22:00,
2013-06-05 19:28:00,52.4,50.1,29.97,ESE,113,0.0,0.0,92,0.05,,,1.18,Wunderground v.1.15,2013-06-06 00:28:00,
2013-06-05 19:33:00,52.3,50.0,29.98,SE,144,0.0,0.0,92,0.00,,,1.18,Wunderground v.1.15,2013-06-06 00:33:00,
2013-06-05 19:39:00,52.3,50.0,29.97,SE,126,0.0,0.0,92,0.54,,,1.22,Wunderground v.1.15,2013-06-06 00:39:00,
2013-06-05 19:45:00,51.9,49.6,29.96,ESE,110,0.0,0.0,92,0.80,,,1.30,Wunderground v.1.15,2013-06-06 00:45:00,
2013-06-05 19:50:00,51.5,49.3,29.97,SE,132,0.0,0.0,92,0.30,,,1.35,Wunderground v.1.15,2013-06-06 00:50:00,
2013-06-05 19:56:00,51.3,49.3,29.97,East,90,0.0,0.0,93,0.19,,,1.37,Wunderground v.1.15,2013-06-06 00:56:00,
2013-06-05 20:01:00,51.2,49.2,29.97,ESE,107,0.0,0.0,93,0.25,,,1.40,Wunderground v.1.15,2013-06-06 01:01:00,
2013-06-05 20:07:00,51.1,49.4,29.97,East,82,0.0,0.0,94,0.26,,,1.43,Wunderground v.1.15,2013-06-06 01:07:00,
2013-06-05 20:13:00,51.0,49.3,29.97,East,84,0.0,0.0,94,0.10,,,1.44,Wunderground v.1.15,2013-06-06 01:13:00,
2013-06-05 20:18:00,50.9,49.2,29.97,ESE,113,0.0,0.0,94,0.12,,,1.46,Wunderground v.1.15,2013-06-06 01:18:00,
2013-06-05 20:24:00,50.9,49.2,29.97,East,91,0.0,0.0,94,0.13,,,1.47,Wunderground v.1.15,2013-06-06 01:24:00,
2013-06-05 20:30:00,50.9,49.2,29.97,ENE,78,0.0,0.0,94,0.13,,,1.48,Wunderground v.1.15,2013-06-06 01:30:00,
2013-06-05 20:35:00,50.8,49.1,29.97,ESE,109,0.0,0.0,94,0.19,,,1.50,Wunderground v.1.15,2013-06-06 01:35:00,
2013-06-05 20:41:00,50.7,49.0,29.97,ESE,108,0.0,0.0,94,0.13,,,1.51,Wunderground v.1.15,2013-06-06 01:41:00,
2013-06-05 20:47:00,50.6,48.9,29.98,ESE,112,0.0,0.0,94,0.12,,,1.52,Wunderground v.1.15,2013-06-06 01:47:00,
2013-06-05 20:52:00,50.5,48.8,29.99,East,92,0.0,0.0,94,0.84,,,1.54,Wunderground v.1.15,2013-06-06 01:52:00,
2013-06-05 20:57:00,50.4,48.7,29.98,East,92,0.0,0.0,94,0.47,,,1.60,Wunderground v.1.15,2013-06-06 01:57:00,
2013-06-05 21:03:00,50.2,48.5,29.98,ENE,75,0.0,0.0,94,0.82,,,1.71,Wunderground v.1.15,2013-06-06 02:03:00,
2013-06-05 21:08:00,50.1,48.4,29.98,East,88,0.0,0.0,94,0.37,,,1.76,Wunderground v.1.15,2013-06-06 02:08:00,
2013-06-05 21:13:00,50.0,48.3,29.98,East,86,0.0,0.0,94,0.24,,,1.78,Wunderground v.1.15,2013-06-06 02:13:00,
2013-06-05 21:19:00,50.0,48.3,29.98,East,85,0.0,0.0,94,0.08,,,1.78,Wunderground v.1.15,2013-06-06 02:19:00,
2013-06-05 21:25:00,49.9,48.2,29.98,ESE,106,0.0,0.0,94,0.05,,,1.78,Wunderground v.1.15,2013-06-06 02:25:00,
2013-06-05 21:30:00,49.9,48.2,29.99,East,93,0.0,0.0,94,0.00,,,1.78,Wunderground v.1.15,2013-06-06 02:30:00,
2013-06-05 21:36:00,49.9,48.2,29.99,ESE,109,0.0,0.0,94,0.00,,,1.78,Wunderground v.1.15,2013-06-06 02:36:00,
2013-06-05 21:42:00,49.8,48.1,30.00,ENE,76,0.0,0.0,94,0.00,,,1.78,Wunderground v.1.15,2013-06-06 02:42:00,
2013-06-05 21:48:00,49.8,48.1,30.00,ENE,65,0.0,0.0,94,0.00,,,1.78,Wunderground v.1.15,2013-06-06 02:48:00,
2013-06-05 21:53:00,49.8,48.1,30.00,East,88,0.0,0.0,94,0.00,,,1.78,Wunderground v.1.15,2013-06-06 02:53:00,
2013-06-05 21:59:00,49.8,48.1,30.00,ESE,104,0.0,0.0,94,0.00,,,1.78,Wunderground v.1.15,2013-06-06 02:59:00,
2013-06-05 22:05:00,49.7,48.0,30.00,ENE,70,0.0,0.0,94,0.00,,,1.78,Wunderground v.1.15,2013-06-06 03:05:00,
2013-06-05 22:11:00,49.7,48.0,30.00,ENE,68,0.0,0.0,94,0.00,,,1.78,Wunderground v.1.15,2013-06-06 03:11:00,
2013-06-05 22:16:00,49.7,48.3,30.00,East,88,0.0,0.0,95,0.00,,,1.78,Wunderground v.1.15,2013-06-06 03:16:00,
2013-06-05 22:22:00,49.7,48.3,30.00,NE,49,0.0,0.0,95,0.00,,,1.78,Wunderground v.1.15,2013-06-06 03:22:00,
2013-06-05 22:28:00,49.6,48.2,30.00,East,82,0.0,0.0,95,0.00,,,1.78,Wunderground v.1.15,2013-06-06 03:28:00,
2013-06-05 22:33:00,49.7,48.3,30.00,ENE,74,0.0,0.0,95,0.00,,,1.78,Wunderground v.1.15,2013-06-06 03:33:00,
2013-06-05 22:39:00,49.6,48.2,29.99,ENE,68,0.0,0.0,95,0.00,,,1.78,Wunderground v.1.15,2013-06-06 03:39:00,
2013-06-05 22:44:00,49.6,48.2,29.99,East,81,0.0,0.0,95,0.00,,,1.79,Wunderground v.1.15,2013-06-06 03:44:00,
2013-06-05 22:50:00,49.6,48.2,29.99,NE,48,0.0,0.0,95,0.00,,,1.79,Wunderground v.1.15,2013-06-06 03:50:00,
2013-06-05 22:56:00,49.6,48.2,29.99,ENE,57,0.0,0.0,95,0.00,,,1.79,Wunderground v.1.15,2013-06-06 03:56:00,
2013-06-05 23:01:00,49.6,48.2,29.99,ENE,71,0.0,0.0,95,0.00,,,1.79,Wunderground v.1.15,2013-06-06 04:01:00,
2013-06-05 23:02:00,49.6,48.2,29.98,ENE,59,0.0,0.0,95,0.00,,,1.79,Wunderground v.1.15,2013-06-06 04:02:00,
2013-06-05 23:05:00,49.6,48.2,29.98,NE,51,0.0,0.0,95,0.00,,,1.79,Wunderground v.1.15,2013-06-06 04:05:00,
2013-06-05 23:06:00,49.6,48.2,29.98,NE,49,0.0,0.0,95,0.00,,,1.79,Wunderground v.1.15,2013-06-06 04:06:00,
2013-06-05 23:12:00,49.6,48.2,29.98,ENE,62,0.0,0.0,95,0.00,,,1.79,Wunderground v.1.15,2013-06-06 04:12:00,
2013-06-05 23:16:00,49.6,48.2,29.98,ENE,57,0.0,0.0,95,0.00,,,1.79,Wunderground v.1.15,2013-06-06 04:16:00,
2013-06-05 23:22:00,49.6,48.2,29.98,ENE,76,0.0,0.0,95,0.00,,,1.79,Wunderground v.1.15,2013-06-06 04:22:00,
2013-06-05 23:28:00,49.6,48.2,29.98,East,90,0.0,0.0,95,0.00,,,1.79,Wunderground v.1.15,2013-06-06 04:28:00,
2013-06-05 23:33:00,49.6,48.2,29.98,ENE,62,0.0,0.0,95,0.00,,,1.79,Wunderground v.1.15,2013-06-06 04:33:00,
2013-06-05 23:39:00,49.6,48.2,29.98,East,84,0.0,0.0,95,0.00,,,1.79,Wunderground v.1.15,2013-06-06 04:39:00,
2013-06-05 23:44:00,49.7,48.3,29.98,ESE,107,0.0,0.0,95,0.00,,,1.79,Wunderground v.1.15,2013-06-06 04:44:00,
2013-06-05 23:50:00,49.6,48.2,29.98,East,91,0.0,0.0,95,0.00,,,1.79,Wunderground v.1.15,2013-06-06 04:50:00,
2013-06-05 23:55:00,49.7,48.3,29.98,East,87,0.0,0.0,95,0.00,,,1.79,Wunderground v.1.15,2013-06-06 04:55:00,